Flag for Netherlands Weather past 2 weeks in Almere, Netherlands

50 °F

Rain showers. Partly cloudy.

Feels Like: 44 °F
Forecast: 45 / 53 °F
Wind: 18 mph from West

Location: Amsterdam Schiphol Airport

Current Time: Nov 29, 2015 at 8:00:19 AM

Latest Report: Nov 29, 2015 at 6:55 AM

Visibility: N/A

Pressure: 29.65 "Hg

Humidity: 88%

Dew point: 46 °F

Location of AlmereLocation

Historic Weather in Almere — Graph


Almere temperature yesterday

Maximum temperature yesterday: 46 °F (at 2:55 AM)
Minimum temperature yesterday: 41 °F (at 12:25 AM)
Average temperature yesterday: 44 °F

Past Weeks' High & Low Weather Summary

High59 °F (Nov 15, 5:25 AM)100% (Nov 14, 6:25 PM)30.21 "Hg (Nov 14, 6:25 PM)
Low30 °F (Nov 23, 5:25 AM)62% (Nov 14, 10:55 AM)29.30 "Hg (Nov 21, 6:55 AM)
Average47 °F85%29.81 "Hg
* Reported Nov 14 5:55 AM — Nov 29 5:55 AM, Almere, Weather by CustomWeather, © 2015

Note: Actual official high and low records may vary slightly from our data, if they occured in-between our weather recording intervals... More about our weather records


Almere weather history for previous 24 hours

Time TempWeatherWind HumidityBarometerVisibility
5:55 AM
Sun, Nov 29
50 °FPassing clouds.21 mph82%29.65 "HgN/A
5:25 AM50 °FPassing clouds.21 mph82%29.65 "HgN/A
4:55 AM50 °FPassing clouds.23 mph82%29.65 "HgN/A
4:25 AM50 °FPassing clouds.21 mph82%29.65 "HgN/A
3:55 AM48 °FScattered showers. Partly cloudy.21 mph82%29.65 "HgN/A
3:25 AM48 °FSprinkles. Passing clouds.29 mph82%29.65 "HgN/A
2:55 AM50 °FPassing clouds.22 mph82%29.65 "HgN/A
2:25 AM50 °FSprinkles. Passing clouds.15 mph88%29.65 "HgN/A
1:55 AM48 °FPartly cloudy.17 mph94%29.65 "HgN/A
12:25 AM46 °FRain. Partly cloudy.22 mph93%29.62 "HgN/A
11:55 PM
Sat, Nov 28
46 °FRain. Partly cloudy.29 mph93%29.62 "Hg4 mi
10:55 PM46 °FLight rain. Partly cloudy.29 mph87%29.62 "HgN/A
10:25 PM45 °FRain. Partly cloudy.28 mph93%29.65 "Hg4 mi
9:25 PM45 °FRain. Partly cloudy.26 mph93%29.68 "Hg4 mi
8:55 PM45 °FLight rain. Partly cloudy.29 mph93%29.68 "HgN/A
8:25 PM45 °FLight rain. Partly cloudy.28 mph87%29.71 "HgN/A
7:55 PM45 °FLight rain. Partly cloudy.25 mph93%29.74 "HgN/A
6:55 PM43 °FLight rain. Partly cloudy.21 mph93%29.77 "Hg6 mi
6:25 PM43 °FRain. Partly cloudy.20 mph93%29.80 "Hg4 mi
5:55 PM43 °FLight rain. Partly cloudy.20 mph93%29.80 "HgN/A
5:25 PM43 °FRain. Passing clouds.22 mph93%29.83 "Hg5 mi
4:55 PM45 °FLight rain. Passing clouds.16 mph81%29.83 "HgN/A
4:25 PM45 °FLight rain. Partly sunny.16 mph81%29.86 "HgN/A
3:55 PM45 °FLight rain. Partly sunny.16 mph76%29.86 "HgN/A
3:25 PM46 °FScattered clouds.18 mph71%29.86 "HgN/A
2:55 PM46 °FPassing clouds.18 mph66%29.86 "HgN/A
2:25 PM46 °FPassing clouds.18 mph66%29.86 "HgN/A
1:55 PM46 °FPassing clouds.16 mph66%29.86 "HgN/A
1:25 PM46 °FPassing clouds.17 mph66%29.86 "HgN/A
12:55 PM46 °FPassing clouds.21 mph66%29.86 "HgN/A
12:25 PM45 °FPassing clouds.17 mph71%29.86 "HgN/A
11:55 AM45 °FPassing clouds.20 mph71%29.86 "HgN/A
11:25 AM46 °FPassing clouds.16 mph71%29.86 "HgN/A
10:55 AM45 °FPassing clouds.20 mph76%29.86 "HgN/A
10:25 AM43 °FScattered showers. Passing clouds.13 mph81%29.86 "HgN/A
9:55 AM45 °FRain showers. Passing clouds.14 mph81%29.86 "HgN/A
9:25 AM43 °FScattered showers. Passing clouds.13 mph76%29.83 "HgN/A
8:55 AM43 °FScattered showers. Passing clouds.14 mph76%29.83 "HgN/A
8:25 AM43 °FPassing clouds.18 mph76%29.83 "HgN/A
Weather by CustomWeather, © 2015

See weather overviewHow to use our weather pages